Date String (YYYY-MM-DD hh:mm:ss) UTC,Instrument flags,Ambient pressure (hPa),Sample flow (lpm),Bypass flow (lpm),Sample temperature (°C),Ambient temperature (°C),ASC tube jacket temperature (°C),LED temperature (°C),Box temperature (°C),Sample RH (%),Span deviation,Mass concentration (μg/m³),Mass concentration (μg/m³),Mass concentration (μg/m³)
DateTimeUTC,F1_M11,P_M11,Q1_M11,Q2_M11,T1_M11,T2_M11,T3_M11,T4_M11,T5_M11,U1_M11,ZSPAN_M11,X0_M11,X2_M11,X1_M11
2022-04-15 08:00:00,,0817.2,5.00,0.00,22.2,21.5,00.0,31.1,24.1,07.6,0000.0,0007.51,0003.28,0001.94
2022-04-15 08:01:00,,0817.1,5.00,0.00,22.3,21.5,00.0,31.1,24.1,07.6,0000.0,0007.55,0003.29,0001.94
2022-04-15 08:02:00,,0817.2,5.00,0.00,22.3,21.5,00.0,31.1,24.1,07.6,0000.0,0008.87,0003.30,0001.94
2022-04-15 08:03:00,,0817.1,5.00,0.00,22.3,21.5,00.0,31.1,24.2,07.6,0000.0,0009.13,0003.33,0001.95
2022-04-15 08:04:00,,0817.1,5.00,0.00,22.3,21.5,00.0,31.1,24.1,07.6,0000.0,0008.63,0003.34,0001.95
2022-04-15 08:05:00,,0817.2,5.00,0.00,22.3,21.5,00.0,31.1,24.1,07.6,0000.0,0008.83,0003.35,0001.95
2022-04-15 08:06:00,,0817.3,5.00,0.00,22.3,21.5,00.0,31.1,24.2,07.6,0000.0,0009.09,0003.36,0001.95
2022-04-15 08:07:00,,0817.4,5.01,0.00,22.3,21.5,00.0,31.2,24.2,07.6,0000.0,0009.05,0003.37,0001.96
2022-04-15 08:08:00,,0817.2,5.00,0.00,22.3,21.5,00.0,31.2,24.2,07.6,0000.0,0009.70,0003.39,0001.98
2022-04-15 08:09:00,,0817.1,5.00,0.00,22.3,21.5,00.0,31.2,24.2,07.6,0000.0,0010.09,0003.39,0001.98
2022-04-15 08:10:00,,0817.0,4.99,0.00,22.3,21.5,00.0,31.2,24.2,07.5,0000.0,0010.16,0003.38,0001.99
2022-04-15 08:11:00,,0816.9,5.00,0.00,22.3,21.5,00.0,31.2,24.2,07.4,0000.0,0010.12,0003.36,0001.99
2022-04-15 08:12:00,,0817.0,5.00,0.00,22.3,21.6,00.0,31.2,24.2,07.4,0000.0,0010.13,0003.38,0002.00
2022-04-15 08:13:00,,0817.0,5.01,0.00,22.4,21.6,00.0,31.2,24.2,07.4,0000.0,0009.10,0003.36,0002.00
2022-04-15 08:14:00,,0817.0,5.01,0.00,22.4,21.5,00.0,31.2,24.2,07.4,0000.0,0008.70,0003.38,0002.01
2022-04-15 08:15:00,,0817.0,5.00,0.00,22.4,21.5,00.0,31.2,24.2,07.4,0000.0,0008.65,0003.36,0002.00
2022-04-15 08:16:00,,0817.0,5.00,0.00,22.3,21.5,00.0,31.2,24.2,07.4,0000.0,0008.56,0003.35,0001.99
2022-04-15 08:17:00,,0817.0,4.99,0.00,22.4,21.5,00.0,31.3,24.2,07.6,0000.0,0008.34,0003.35,0001.98
2022-04-15 08:18:00,,0817.0,5.00,0.00,22.3,21.5,00.0,31.3,24.2,07.6,0000.0,0008.29,0003.36,0001.99
2022-04-15 08:19:00,,0817.1,5.00,0.00,22.4,21.5,00.0,31.3,24.2,07.5,0000.0,0007.51,0003.33,0001.98
2022-04-15 08:20:00,,0817.3,5.00,0.00,22.4,21.5,00.0,31.3,24.1,07.4,0000.0,0007.04,0003.33,0001.98
2022-04-15 08:21:00,,0817.2,5.00,0.00,22.4,21.5,00.0,31.3,24.2,07.4,0000.0,0006.79,0003.30,0001.97
2022-04-15 08:22:00,,0817.0,5.00,0.00,22.4,21.5,00.0,31.3,24.2,07.4,0000.0,0006.85,0003.28,0001.97
2022-04-15 08:23:00,,0816.9,5.00,0.00,22.4,21.5,00.0,31.3,24.2,07.4,0000.0,0006.87,0003.27,0001.96
2022-04-15 08:24:00,,0817.1,5.02,0.00,22.4,21.5,00.0,31.3,24.2,07.4,0000.0,0006.98,0003.25,0001.96
2022-04-15 08:25:00,,0816.8,5.00,0.00,22.4,21.6,00.0,31.3,24.2,07.4,0000.0,0007.11,0003.27,0001.97
2022-04-15 08:26:00,,0817.1,5.00,0.00,22.4,21.6,00.0,31.3,24.2,07.3,0000.0,0007.00,0003.26,0001.98
2022-04-15 08:27:00,,0817.1,5.00,0.00,22.4,21.6,00.0,31.3,24.2,07.4,0000.0,0006.93,0003.25,0001.98
2022-04-15 08:28:00,,0817.3,4.99,0.00,22.4,21.6,00.0,31.3,24.3,07.4,0000.0,0007.11,0003.24,0002.00
2022-04-15 08:29:00,,0817.1,5.00,0.00,22.4,21.6,00.0,31.3,24.3,07.4,0000.0,0007.55,0003.24,0002.01
2022-04-15 08:30:00,,0817.1,5.02,0.00,22.4,21.6,00.0,31.3,24.2,07.3,0000.0,0007.57,0003.24,0001.99
2022-04-15 08:31:00,,0817.2,4.99,0.00,22.4,21.5,00.0,31.3,24.2,07.3,0000.0,0007.57,0003.25,0001.99
2022-04-15 08:32:00,,0817.3,4.99,0.00,22.4,21.5,00.0,31.3,24.2,07.2,0000.0,0007.65,0003.28,0002.00
2022-04-15 08:33:00,,0817.3,4.99,0.00,22.4,21.5,00.0,31.3,24.3,07.2,0000.0,0007.52,0003.26,0001.99
2022-04-15 08:34:00,,0816.8,5.00,0.00,22.4,21.6,00.0,31.3,24.2,07.2,0000.0,0007.57,0003.29,0002.01
2022-04-15 08:35:00,,0816.8,5.00,0.00,22.4,21.6,00.0,31.3,24.2,07.2,0000.0,0007.55,0003.33,0002.02
2022-04-15 08:36:00,,0816.8,5.00,0.00,22.4,21.6,00.0,31.4,24.3,07.3,0000.0,0007.61,0003.31,0002.01
2022-04-15 08:37:00,,0816.8,5.01,0.00,22.5,21.6,00.0,31.4,24.3,07.3,0000.0,0008.35,0003.33,0002.03
2022-04-15 08:38:00,,0816.9,5.01,0.00,22.5,21.6,00.0,31.4,24.3,07.2,0000.0,0008.44,0003.32,0002.03
2022-04-15 08:39:00,,0816.8,5.00,0.00,22.5,21.6,00.0,31.4,24.3,07.2,0000.0,0008.33,0003.33,0002.03
2022-04-15 08:40:00,,0816.6,5.01,0.00,22.5,21.6,00.0,31.4,24.3,07.2,0000.0,0008.28,0003.39,0002.05
2022-04-15 08:41:00,,0816.6,5.00,0.00,22.5,21.6,00.0,31.4,24.3,07.2,0000.0,0008.43,0003.42,0002.07
2022-04-15 08:42:00,,0816.6,4.99,0.00,22.5,21.6,00.0,31.4,24.3,07.2,0000.0,0008.52,0003.41,0002.09
2022-04-15 08:43:00,,0816.7,5.00,0.00,22.5,21.6,00.0,31.4,24.3,07.2,0000.0,0008.89,0003.44,0002.11
2022-04-15 08:44:00,,0816.6,5.00,0.00,22.5,21.6,00.0,31.4,24.3,07.2,0000.0,0009.33,0003.49,0002.13
2022-04-15 08:45:00,,0816.7,5.00,0.00,22.5,21.6,00.0,31.4,24.3,07.2,0000.0,0009.28,0003.46,0002.12
2022-04-15 08:46:00,,0816.7,4.98,0.00,22.5,21.6,00.0,31.4,24.3,07.2,0000.0,0009.34,0003.45,0002.12
2022-04-15 08:47:00,,0816.8,5.00,0.00,22.5,21.6,00.0,31.4,24.3,07.3,0000.0,0009.13,0003.45,0002.13
2022-04-15 08:48:00,,0816.8,4.99,0.00,22.5,21.6,00.0,31.4,24.3,07.3,0000.0,0008.67,0003.45,0002.11
2022-04-15 08:49:00,,0816.8,5.01,0.00,22.5,21.6,00.0,31.4,24.3,07.2,0000.0,0008.33,0003.49,0002.11
2022-04-15 08:50:00,,0816.7,4.99,0.00,22.5,21.6,00.0,31.4,24.3,07.2,0000.0,0008.30,0003.50,0002.13
2022-04-15 08:51:00,,0816.7,5.00,0.00,22.5,21.6,00.0,31.4,24.3,07.2,0000.0,0008.20,0003.47,0002.12
2022-04-15 08:52:00,,0816.7,5.00,0.00,22.5,21.6,00.0,31.4,24.3,07.2,0000.0,0008.03,0003.48,0002.12
2022-04-15 08:53:00,,0816.7,5.00,0.00,22.5,21.6,00.0,31.4,24.3,07.2,0000.0,0008.01,0003.49,0002.15
2022-04-15 08:54:00,,0816.7,5.00,0.00,22.5,21.6,00.0,31.4,24.3,07.2,0000.0,0007.73,0003.48,0002.14
2022-04-15 08:55:00,,0816.8,4.99,0.00,22.5,21.6,00.0,31.4,24.3,07.4,0000.0,0007.30,0003.46,0002.14
2022-04-15 08:56:00,,0816.7,5.00,0.00,22.5,21.6,00.0,31.4,24.3,07.5,0000.0,0007.58,0003.57,0002.17
2022-04-15 08:57:00,,0816.7,5.00,0.00,22.5,21.6,00.0,31.4,24.3,07.4,0000.0,0007.70,0003.62,0002.18
2022-04-15 08:58:00,,0816.7,5.02,0.00,22.5,21.6,00.0,31.4,24.3,07.3,0000.0,0007.77,0003.64,0002.17
2022-04-15 08:59:00,,0816.6,5.00,0.00,22.5,21.6,00.0,31.4,24.3,07.3,0000.0,0007.70,0003.63,0002.18
